[[{"header":{"parameterUnit":"m.s-1","parameterCategory":1,"la1":30.2991,"la2":30.254,"lo1":-89.0895,"lo2":-89.0444,"dy":0.0017,"dx":0.0017,"nx":28,"ny":28,"refTime":"2024-07-10T03:00:00:Z","depth":0,"parameterNumber":2,"parameterNumberName":"U-component_of_WINDS"},"data":[0,0,0,0,0,0,0,0,0,0,0,0,0,0,0,0,0,0,0,0,0,0,0,0,0,0,0,0,0,0,0,0,0,0,0,0,0,0,0,0,0,0,0,0,0,0,0,0,0,0,0,0,0,0,0,0,0,0,1.7428,1.7429,0,1.7467,1.7467,1.7467,1.7452,1.7451,1.745,1.7449,1.7487,1.7488,1.749,0,0,0,0,0,0,0,0,0,0,0,0,0,1.7339,1.7341,1.7428,1.7429,1.7429,1.7466,1.7467,1.7468,1.7452,1.7451,1.745,1.7449,1.7486,1.7488,1.749,0,0,0,0,0,0,0,0,0,0,0,0,0,1.7378,1.7342,1.7428,1.7426,1.7426,1.7466,1.7467,1.7468,1.7452,1.7451,1.745,1.7448,1.7485,1.7488,1.7491,1.7535,0,0,1.7499,1.75,0,0,0,0,0,0,0,0,1.7376,1.7381,1.7426,1.7426,1.7427,1.7453,1.7449,1.749,1.7453,1.7442,1.7449,1.7448,1.7476,1.748,1.749,1.7536,1.7538,1.7499,1.7501,1.7502,1.7503,0,0,0,0,0,0,0,1.7373,1.7379,1.7443,1.7426,1.7427,1.7422,1.7426,1.7457,1.7466,1.7443,1.7442,1.7447,1.7476,1.7487,1.7491,1.7539,1.7499,1.7502,1.7503,1.7505,1.7622,1.7623,0,0,0,0,0,0,1.7371,1.7377,1.7442,1.7444,1.7397,1.7425,1.743,1.7446,1.7466,1.7468,1.7448,1.7446,1.7483,1.7488,1.7492,1.7543,1.7502,1.7505,1.7506,1.762,1.7622,1.7624,0,0,0,0,0,0,1.7369,1.7376,1.7441,1.7411,1.7418,1.7428,1.7447,1.7447,1.7458,1.747,1.7471,1.7458,1.7482,1.7488,1.7524,1.7545,1.7506,1.7509,1.7619,1.7621,1.7623,1.7648,0,0,0,0,0,0,1.7366,1.7376,1.7393,1.7411,1.742,1.7473,1.7448,1.7449,1.7463,1.7461,1.7479,1.7481,1.7482,1.752,1.7527,1.7548,1.7511,1.7617,1.762,1.7622,1.7645,1.765,1.7655,0,0,0,0,0,1.7363,1.7399,1.7394,1.7402,1.7442,1.7474,1.7479,1.748,1.7465,1.7482,1.7489,1.748,1.7542,1.7524,1.7531,1.7553,1.7615,1.7619,1.7622,1.7643,1.7649,1.7655,0,0,0,0,0,0,1.7382,1.7401,1.7396,1.7439,1.7455,1.7471,1.7493,1.7487,1.7507,1.7504,1.7504,1.7508,1.7545,1.7553,1.7533,1.7596,1.7576,1.7581,1.7589,1.7596,1.7601,1.7597,1.7513,0,0,0,0,0,1.7392,1.7417,1.7431,1.7467,1.7476,1.7483,1.7497,1.7496,1.7513,1.7519,1.7529,1.7545,1.7567,1.7582,1.7604,1.7647,1.765,1.7666,1.7671,1.7675,1.7678,1.77,1.7707,1.7634,1.7634,1.7634,0,0,1.7411,1.7424,1.744,1.7471,1.7484,1.7509,1.7489,1.7516,1.7534,1.7523,1.7557,1.7565,1.7583,1.7622,1.764,1.763,1.7699,1.7679,1.7682,1.7684,1.7704,1.7711,1.7717,1.7637,1.7636,1.7636,0,0,1.7458,1.7471,1.7502,1.7515,1.7534,1.7539,1.7546,1.7564,1.7568,1.7603,1.7595,1.7616,1.7656,1.7668,1.768,1.7732,1.7724,1.7739,1.7765,1.7786,1.7791,1.7796,1.7813,1.782,1.7743,1.7743,1.7743,0,1.7479,1.7517,1.7518,1.7546,1.756,1.7552,1.7582,1.7595,1.762,1.7629,1.7618,1.7667,1.7678,1.7719,1.7732,1.7742,1.775,1.7736,1.7791,1.7796,1.78,1.7817,1.7823,1.7745,1.7744,1.7744,1.7744,0,1.7541,1.7567,1.759,1.7615,1.7631,1.766,1.7665,1.7682,1.768,1.7685,1.772,1.7733,1.7757,1.7767,1.7765,1.7808,1.7801,1.7791,1.777,1.7809,1.7824,1.783,1.7747,1.7746,1.7746,1.7746,0,0,1.76,1.7626,1.7634,1.7644,1.7665,1.7685,1.7714,1.7737,1.775,1.7768,1.7791,1.7825,1.7815,1.7828,1.7828,1.7847,1.7885,1.7834,1.7834,1.7842,1.7931,1.7938,1.7945,1.7881,1.7882,1.7883,1.7929,0,1.7648,1.7698,1.77,1.7745,1.7769,1.7762,1.7786,1.7801,1.7807,1.7828,1.7834,1.7857,1.7844,1.7851,1.787,1.7877,1.7903,1.7874,1.7901,1.7902,1.7895,1.7953,1.796,1.8003,1.7935,1.7936,1.7937,0,1.771,1.7729,1.7777,1.7794,1.7804,1.7826,1.7847,1.7867,1.7884,1.7887,1.7901,1.7898,1.7926,1.7906,1.7944,1.7924,1.7936,1.7941,1.7943,1.7944,1.792,1.7954,1.8017,1.8023,1.7947,1.7946,1.7945,0,1.7746,1.7785,1.7818,1.7827,1.7848,1.7864,1.7873,1.7888,1.7902,1.7921,1.7929,1.7951,1.7963,1.7979,1.7982,1.7967,1.802,1.8,1.8022,1.8021,1.8031,1.803,1.8095,1.8042,1.8042,1.8042,1.8042,0,1.7797,1.7826,1.7834,1.7854,1.7886,1.7889,1.792,1.7928,1.7942,1.7963,1.7959,1.7978,1.7981,1.8002,1.8004,1.8034,1.804,1.8042,1.8042,1.8042,1.8041,1.8048,1.8044,1.8043,1.8043,1.8043,1.8042,0,1.7842,1.7849,1.7885,1.7902,1.7906,1.7929,1.7943,1.7962,1.7968,1.7994,1.8001,1.801,1.8033,1.8038,1.8066,1.8067,1.8103,1.8101,1.8097,1.8096,1.8117,1.8114,1.8187,1.8196,1.8138,1.8139,1.8139,0,1.7874,1.7896,1.7916,1.793,1.794,1.7962,1.7976,1.798,1.7994,1.8015,1.8031,1.8054,1.8073,1.8111,1.8119,1.814,1.8137,1.8161,1.814,1.8139,1.8136,1.8133,1.8135,1.8165,1.8165,1.8166,1.8166,0,1.7929,1.7931,1.7952,1.7974,1.7991,1.8008,1.8025,1.8036,1.8041,1.8058,1.8082,1.8097,1.8125,1.8148,1.8169,1.8178,1.8172,1.8173,1.8179,1.8178,1.8174,1.8174,1.8106,1.8171,1.817,1.817,1.817,1.817,1.7967,1.7986,1.8002,1.8025,1.8038,1.8054,1.8072,1.808,1.8101,1.8124,1.8125,1.8151,1.8166,1.8194,1.8204,1.8224,1.8217,1.8226,1.8227,1.8229,1.823,1.8172,1.8228,1.8228,1.8228,1.8228,1.8228,0,1.802,1.803,1.8052,1.8075,1.8093,1.8088,1.8105,1.812,1.8143,1.8159,1.8177,1.8204,1.8226,1.8237,1.8258,1.8272,1.827,1.8278,1.8276,1.8277,1.8237,1.8229,1.8279,1.8279,1.8279,1.8279,1.8279,1.8279,1.805,1.8081,1.8085,1.8122,1.8132,1.8158,1.8168,1.8182,1.8194,1.8225,1.8243,1.825,1.8263,1.8286,1.8305,1.8308,1.8315,1.8323,1.8324,1.8286,1.828,1.8275,1.8268,1.8325,1.8325,1.8363,1.8363,1.8364]},{"header":{"parameterUnit":"m.s-1","parameterCategory":1,"la1":30.2991,"la2":30.254,"lo1":-89.0895,"lo2":-89.0444,"dy":0.0017,"dx":0.0017,"nx":28,"ny":28,"refTime":"2024-07-10T03:00:00:Z","depth":0,"parameterNumber":3,"parameterNumberName":"V-component_of_WINDS"},"data":[0,0,0,0,0,0,0,0,0,0,0,0,0,0,0,0,0,0,0,0,0,0,0,0,0,0,0,0,0,0,0,0,0,0,0,0,0,0,0,0,0,0,0,0,0,0,0,0,0,0,0,0,0,0,0,0,0,0,1.3472,1.3473,0,1.3512,1.3512,1.3513,1.3489,1.3488,1.3487,1.3486,1.3525,1.3527,1.353,0,0,0,0,0,0,0,0,0,0,0,0,0,1.3374,1.3376,1.3472,1.3473,1.3473,1.3512,1.3512,1.3513,1.3489,1.3488,1.3487,1.3485,1.3525,1.3527,1.353,0,0,0,0,0,0,0,0,0,0,0,0,0,1.3416,1.3377,1.3472,1.3466,1.3466,1.3511,1.3512,1.3513,1.349,1.3488,1.3486,1.3485,1.3524,1.3527,1.353,1.3583,0,0,1.354,1.3541,0,0,0,0,0,0,0,0,1.3413,1.3419,1.3467,1.3467,1.3467,1.3494,1.3492,1.3536,1.349,1.3481,1.3486,1.3484,1.3516,1.352,1.3531,1.3585,1.3587,1.354,1.3542,1.3543,1.3544,0,0,0,0,0,0,0,1.3411,1.3417,1.3488,1.3467,1.3467,1.3461,1.3465,1.35,1.3507,1.3481,1.348,1.3485,1.3516,1.3528,1.3532,1.3587,1.354,1.3543,1.3545,1.3546,1.3685,1.3686,0,0,0,0,0,0,1.3408,1.3415,1.3487,1.3489,1.3435,1.3464,1.3468,1.3487,1.3507,1.3508,1.3486,1.3484,1.3523,1.3528,1.3533,1.3595,1.3543,1.3546,1.3548,1.3683,1.3685,1.3687,0,0,0,0,0,0,1.3406,1.3415,1.3485,1.3452,1.346,1.3467,1.3488,1.3488,1.3501,1.3511,1.3512,1.3498,1.3522,1.3529,1.357,1.3596,1.3548,1.355,1.3681,1.3684,1.3686,1.3721,0,0,0,0,0,0,1.3404,1.3414,1.3435,1.3452,1.3462,1.3523,1.349,1.349,1.3506,1.3503,1.3521,1.3523,1.3521,1.3566,1.3574,1.36,1.3553,1.3678,1.3682,1.3685,1.3718,1.3725,1.3731,0,0,0,0,0,1.34,1.3444,1.3437,1.3445,1.3488,1.3524,1.353,1.3528,1.3508,1.3529,1.3535,1.3522,1.3592,1.357,1.3579,1.3607,1.3677,1.3681,1.3685,1.3715,1.3723,1.3731,0,0,0,0,0,0,1.343,1.3446,1.3438,1.3489,1.3505,1.352,1.3546,1.3537,1.3559,1.3555,1.3551,1.3555,1.3599,1.3607,1.3582,1.3658,1.3631,1.3637,1.3651,1.366,1.3666,1.3663,1.3556,0,0,0,0,0,1.3443,1.3471,1.3483,1.3527,1.3535,1.3539,1.3555,1.3552,1.3568,1.3575,1.3584,1.3601,1.3626,1.3643,1.3667,1.3718,1.3721,1.3741,1.3748,1.3753,1.3759,1.3785,1.3793,1.37,1.37,1.37,0,0,1.3469,1.3481,1.3499,1.3533,1.3545,1.3574,1.3545,1.3577,1.3598,1.358,1.362,1.3627,1.3645,1.3691,1.3712,1.3699,1.3785,1.3758,1.3763,1.3765,1.379,1.3798,1.3806,1.3703,1.3703,1.3702,0,0,1.3531,1.3544,1.358,1.3593,1.3612,1.3614,1.3623,1.3639,1.3643,1.3683,1.3669,1.3693,1.3738,1.3751,1.3763,1.3827,1.3816,1.3835,1.3869,1.3895,1.3902,1.3909,1.3931,1.3939,1.384,1.384,1.384,0,1.3561,1.3604,1.3601,1.3633,1.3647,1.3632,1.3668,1.3681,1.3706,1.3716,1.3701,1.3755,1.3767,1.3815,1.383,1.3841,1.385,1.3833,1.3901,1.3908,1.3914,1.3935,1.3943,1.3843,1.3842,1.3842,1.3842,0,1.364,1.367,1.3697,1.3722,1.3739,1.3774,1.3774,1.3792,1.3787,1.379,1.383,1.3842,1.3868,1.3879,1.3874,1.3926,1.3917,1.3902,1.3875,1.3925,1.3945,1.3953,1.3846,1.3845,1.3844,1.3844,0,0,1.3724,1.3745,1.3755,1.3765,1.3784,1.3806,1.3839,1.3864,1.3879,1.3896,1.3923,1.396,1.3945,1.3959,1.3955,1.3978,1.4027,1.3959,1.396,1.3971,1.4083,1.4094,1.4104,1.4019,1.402,1.4022,1.4081,0,1.3787,1.3845,1.3841,1.3895,1.3921,1.3906,1.3934,1.3948,1.3951,1.3973,1.3977,1.4003,1.3982,1.399,1.4012,1.4016,1.4049,1.4012,1.4043,1.4044,1.4039,1.4114,1.4127,1.4183,1.4089,1.4091,1.4091,0,1.3869,1.3888,1.3945,1.3957,1.3968,1.3994,1.4016,1.4037,1.4052,1.4053,1.4067,1.4059,1.4091,1.4063,1.4106,1.4081,1.4093,1.4097,1.4099,1.4102,1.4071,1.4119,1.4201,1.4209,1.4104,1.4103,1.4102,0,1.3923,1.3964,1.4002,1.4012,1.4028,1.4046,1.4053,1.4066,1.4081,1.4099,1.4108,1.413,1.4142,1.4159,1.4156,1.4137,1.42,1.4172,1.4201,1.4201,1.4215,1.4214,1.43,1.4223,1.4223,1.4223,1.4223,0,1.3994,1.4029,1.4027,1.4051,1.4089,1.4084,1.4121,1.4126,1.4138,1.4161,1.4149,1.4171,1.4167,1.4189,1.4187,1.4222,1.4228,1.4228,1.4228,1.423,1.4229,1.4238,1.4234,1.4225,1.4225,1.4224,1.4224,0,1.4062,1.4062,1.4103,1.4114,1.4118,1.4145,1.4155,1.4176,1.4178,1.4208,1.4215,1.4217,1.4242,1.4241,1.4269,1.4268,1.4311,1.4306,1.4306,1.4305,1.4333,1.4331,1.4427,1.4439,1.4355,1.4356,1.4357,0,1.4107,1.4134,1.4147,1.4162,1.4171,1.4195,1.4209,1.4204,1.422,1.4237,1.4257,1.428,1.4299,1.4339,1.4343,1.4364,1.4359,1.4392,1.4362,1.4363,1.4359,1.4358,1.436,1.4398,1.4398,1.4399,1.44,0,1.4187,1.4186,1.4207,1.4228,1.4245,1.4262,1.4276,1.4289,1.4286,1.4303,1.4328,1.4343,1.4371,1.4394,1.4414,1.4421,1.441,1.4409,1.4416,1.4419,1.4418,1.4418,1.4322,1.4407,1.4406,1.4406,1.4405,1.4405,1.4245,1.4267,1.428,1.4303,1.4314,1.4327,1.4348,1.4351,1.4372,1.4395,1.439,1.4418,1.443,1.4456,1.4464,1.4485,1.4474,1.4485,1.4488,1.4491,1.4493,1.4414,1.4489,1.4489,1.4488,1.4488,1.4488,0,1.4324,1.4331,1.4352,1.4373,1.4391,1.4378,1.4394,1.4409,1.4434,1.4446,1.4465,1.4493,1.4515,1.4519,1.454,1.4556,1.4551,1.4562,1.4561,1.4562,1.4503,1.4494,1.4565,1.4565,1.4565,1.4565,1.4565,1.4565,1.4367,1.4403,1.4403,1.4443,1.4449,1.4477,1.4486,1.4498,1.4508,1.4539,1.4557,1.456,1.4569,1.459,1.4609,1.461,1.4618,1.463,1.4629,1.4574,1.4566,1.4559,1.4551,1.4632,1.4632,1.4686,1.4687,1.4687]}]]